Dewpoint
68 72 73 73 73 73 73 73 73 73 73 73 73 73 73 72 72 72 72 72 71 71 70 70 70 71 71 71 71 71 71 71 71 72 72 70 70 71 71 71 69 68 71
69 71 72 73 73 73 73 73 73 73 73 73 73 73 72 72 72 72 71 71 71 70 70 70 70 70 70 70 71 71 71 70 70 70 71 70 70 71 70 71 71 70 71
68 71 72 72 73 73 73 73 73 73 73 73 73 72 72 72 72 72 71 70 70 69 68 69 69 70 70 70 70 71 70 70 70 70 70 68 68 70 70 71 71 71 71
66 70 71 72 72 73 73 73 73 73 73 73 72 72 72 72 71 71 71 71 70 69 68 67 67 67 68 68 69 69 68 68 67 67 67 68 65 70 69 70 70 70 70
67 70 71 71 71 72 71 71 71 71 71 71 71 71 71 70 70 70 69 70 70 70 70 70 69 68 68 68 68 68 68 68 68 64 65 69 69 69 70 70 70 70 70
68 69 70 70 71 71 71 71 71 70 70 70 70 70 69 69 69 68 68 67 67 68 68 68 68 68 69 69 69 68 68 68 66 65 67 68 68 69 69 69 70 70 70
67 69 69 69 70 70 70 69 69 69 69 69 69 68 68 68 67 66 66 66 65 65 65 66 67 67 66 66 67 67 67 67 64 66 66 66 66 68 68 69 69 70 70
67 68 67 68 68 68 69 68 68 68 68 68 67 65 64 64 63 63 62 60 60 59 59 62 63 64 64 63 64 64 65 66 64 65 65 65 66 68 68 67 67 68 68
67 67 67 67 67 67 67 67 67 67 67 66 65 63 61 61 61 58 58 58 58 59 59 60 60 61 63 60 61 62 62 63 62 62 59 61 61 64 66 66 66 65 66
68 68 67 66 65 65 65 65 65 65 65 66 65 63 60 60 59 59 57 59 58 58 60 60 60 60 59 60 59 60 60 56 52 58 57 58 59 60 61 62 65 66 64
67 68 68 66 65 64 64 62 61 61 61 61 61 62 59 57 54 54 59 60 59 59 60 59 58 58 55 56 57 58 56 50 52 54 56 61 60 60 61 61 61 62 64
65 64 64 64 63 62 60 60 58 57 57 58 59 56 54 52 53 53 55 58 58 58 58 57 57 56 52 47 47 53 50 51 52 55 56 59 59 60 60 59 61 62 62
62 62 62 62 60 59 57 58 58 60 57 55 54 53 53 52 52 51 51 51 51 54 51 51 50 49 46 47 46 49 50 51 52 54 56 57 56 57 58 58 58 59 59
59 61 61 58 57 57 56 53 56 55 52 53 54 53 53 53 52 52 52 51 50 51 50 49 49 50 48 47 45 49 50 50 52 52 55 57 55 53 55 55 56 56 58
57 58 59 57 57 57 57 56 55 53 53 53 52 53 52 52 51 52 52 51 50 48 48 48 46 47 45 43 45 47 46 48 50 51 53 56 54 52 52 52 53 54 55
56 57 57 58 57 55 55 54 55 52 53 53 53 53 53 53 52 50 50 49 48 46 46 46 44 45 44 43 41 42 47 45 45 50 50 53 54 54 53 50 50 51 53
55 57 57 57 55 54 54 55 52 52 52 52 52 52 52 52 50 49 49 49 48 46 44 45 45 43 44 40 39 43 42 46 45 42 46 47 49 54 53 52 49 49 50
55 56 52 54 53 52 52 51 51 52 52 52 52 52 51 52 49 48 47 46 46 46 44 44 44 41 43 38 39 39 40 44 37 40 39 38 40 40 44 50 48 45 47
50 50 50 50 50 50 49 51 50 51 52 52 52 51 50 50 51 47 45 45 45 43 42 40 39 40 39 36 35 37 40 42 40 36 33 35 36 37 34 43 45 46 47
50 50 49 48 49 49 50 49 50 52 52 51 51 50 50 50 46 46 44 43 43 40 40 37 37 37 38 37 34 37 38 34 38 39 35 32 29 31 31 33 34 33 46
49 48 48 49 48 48 49 48 49 50 50 50 50 50 48 46 43 42 41 40 41 38 38 37 38 36 35 36 35 35 38 32 34 33 32 31 29 29 29 31 32 32 33
47 48 50 48 47 48 49 49 50 50 50 50 49 47 45 41 41 39 39 39 37 37 37 35 36 36 35 36 32 33 31 33 30 31 30 28 28 32 30 28 30 31 32
46 48 49 49 50 50 50 50 51 51 50 49 46 44 41 39 40 39 39 39 37 37 36 35 37 36 33 34 33 32 28 27 29 31 27 30 28 30 31 31 31 31 31
45 46 47 48 48 48 48 48 49 49 48 48 45 41 38 37 38 40 39 37 37 37 36 36 37 36 34 32 33 33 31 30 25 24 28 29 30 28 30 30 32 32 29
45 45 47 47 48 48 48 48 49 48 47 47 45 41 37 35 37 37 38 35 35 36 35 35 36 34 35 33 33 31 30 29 28 25 24 26 28 29 30 30 30 30 29
45 47 48 47 47 48 49 49 49 48 47 46 45 43 38 36 35 36 35 36 34 34 34 34 34 32 33 33 32 32 31 28 27 26 25 25 25 27 27 28 29 29 30
Lifted_Index
-5 -6 -7 -8 -8 -8 -8 -7 -7 -7 -7 -7 -7 -7 -7 -7 -7 -6 -6 -6 -6 -5 -5 -5 -5 -5 -5 -5 -5 -4 -4 -4 -4 -5 -5 -4 -4 -4 -4 -4 -3 -4 -4
-5 -6 -7 -8 -8 -8 -8 -8 -7 -8 -7 -7 -7 -7 -7 -7 -7 -6 -6 -6 -5 -5 -5 -5 -5 -5 -5 -5 -5 -4 -4 -4 -4 -4 -4 -4 -4 -4 -4 -4 -4 -4 -4
-5 -6 -7 -8 -8 -9 -8 -8 -8 -8 -8 -7 -7 -7 -6 -6 -6 -6 -5 -5 -5 -4 -4 -4 -4 -4 -4 -4 -4 -4 -3 -3 -3 -3 -3 -4 -4 -4 -4 -4 -4 -4 -4
-5 -6 -7 -8 -8 -8 -8 -8 -8 -8 -7 -7 -7 -6 -6 -6 -5 -5 -5 -5 -5 -4 -4 -4 -3 -3 -3 -3 -3 -2 -2 -2 -2 -3 -3 -3 -4 -4 -4 -4 -4 -4 -3
-5 -5 -6 -7 -7 -7 -7 -7 -7 -7 -6 -6 -6 -6 -6 -5 -5 -4 -4 -4 -4 -4 -4 -4 -4 -3 -3 -3 -2 -2 -2 -2 -2 -2 -3 -3 -4 -4 -4 -3 -3 -3 -3
-5 -5 -6 -6 -6 -6 -6 -6 -6 -5 -5 -5 -5 -5 -5 -5 -4 -4 -3 -3 -3 -3 -3 -3 -3 -3 -3 -3 -2 -2 -2 -2 -2 -2 -3 -3 -3 -4 -4 -3 -3 -3 -3
-4 -5 -5 -6 -5 -5 -5 -5 -4 -4 -4 -4 -4 -4 -3 -3 -3 -3 -3 -2 -2 -2 -2 -2 -2 -2 -2 -2 -2 -2 -2 -2 -1 -2 -2 -2 -3 -3 -3 -3 -2 -3 -3
-4 -4 -4 -4 -4 -4 -4 -3 -3 -3 -3 -3 -2 -2 -1 -1 -2 -2 -3 -2 -2 -1 0 0 0 0 0 1 1 0 -1 -1 -1 -1 -1 -1 -2 -2 -2 -2 -2 -2 -2
-4 -4 -4 -3 -3 -3 -2 -2 -2 -2 -2 -1 -1 -0 -0 -0 -0 -1 -1 -1 0 1 3 3 3 3 3 3 3 3 1 1 0 0 0 1 0 -0 -1 -1 -1 -1 -1
-5 -4 -4 -3 -2 -2 -2 -1 -1 -1 -1 -1 0 1 1 0 0 1 1 2 3 4 4 5 5 5 5 5 5 5 4 4 3 3 3 3 3 2 1 0 0 -0 -0
-5 -5 -4 -3 -2 -1 -1 -0 -0 -0 -0 0 1 2 1 1 1 2 3 4 5 5 6 6 6 7 7 7 7 7 6 6 6 5 5 4 4 3 3 2 1 1 0
-4 -4 -4 -2 -1 -1 -0 0 0 1 1 1 1 2 2 3 4 5 6 6 6 7 7 7 7 8 8 8 8 8 7 7 6 6 6 5 5 4 4 3 3 2 2
-3 -3 -2 -1 -0 0 1 1 1 1 1 1 2 3 4 5 6 7 7 7 7 7 7 8 8 8 8 9 8 8 7 7 7 6 6 6 6 6 5 5 5 4 4
-2 -1 -1 -0 1 1 1 1 1 1 1 2 3 5 6 7 7 7 7 8 8 8 8 8 8 8 8 9 8 8 7 7 7 7 7 7 7 8 7 7 7 6 6
-1 -1 -0 0 1 1 1 1 1 2 3 4 6 6 7 7 7 8 8 8 9 9 9 9 9 9 9 9 9 8 8 8 8 8 8 8 8 8 8 8 8 8 7
-1 -0 -0 0 1 1 1 2 3 4 5 6 7 7 7 7 8 8 9 9 10 10 10 10 10 10 10 10 10 9 8 8 8 9 9 9 8 8 8 9 9 9 9
-0 0 1 2 3 3 4 4 5 6 7 7 7 7 8 8 9 10 10 10 11 12 12 12 12 11 12 11 11 10 10 9 9 9 10 10 9 9 9 9 10 10 10
1 1 3 4 5 6 6 6 7 7 7 7 8 8 9 9 10 11 11 11 12 13 14 13 13 13 13 13 12 11 10 9 9 10 10 10 11 11 11 11 11 11 11
2 3 5 6 7 7 7 7 7 7 8 8 8 9 10 10 11 12 12 12 13 14 15 15 14 14 14 14 13 11 10 9 9 10 11 11 12 12 13 13 13 12 12
4 5 6 7 8 8 8 8 8 8 8 8 9 9 10 11 12 13 13 14 14 15 16 16 16 15 15 14 13 11 10 10 10 11 12 12 13 14 15 15 15 14 14
6 6 7 8 8 8 8 8 7 7 8 8 9 10 11 12 14 14 15 15 16 16 17 17 16 16 16 15 13 11 10 10 10 12 13 13 14 15 16 16 16 16 16
7 7 7 8 7 8 8 7 7 7 8 8 9 10 11 13 15 16 16 16 17 17 17 17 17 16 16 16 15 13 12 11 12 13 14 15 15 16 17 17 17 17 17
7 7 7 7 7 7 7 7 7 7 7 8 8 10 11 13 15 16 17 17 17 18 17 17 17 17 16 16 16 15 14 13 13 14 15 16 17 17 17 17 17 17 18
7 7 6 6 6 6 7 7 6 6 7 7 8 9 11 13 14 16 17 18 18 18 18 17 17 17 17 17 17 17 16 16 14 14 15 16 17 18 18 18 18 18 18
6 6 6 6 6 6 6 6 6 6 6 7 8 9 10 11 13 15 17 18 18 18 18 17 17 17 17 17 17 18 17 17 16 15 15 16 17 18 18 18 18 18 19
6 6 6 6 6 6 6 6 6 6 6 7 8 9 9 11 12 15 17 18 18 18 18 17 17 18 18 18 18 18 18 17 17 16 15 16 17 18 19 19 18 18 19